星链-31874 (STARLINK-31874)

导读

STARLINK-31874是美国SpaceX星链(Starlink)项目的第二代低轨通信卫星,于2024年8月20日发射入轨。作为全球卫星互联网组网的组成部分,该卫星运行在近地轨道,搭载相控阵天线等先进通信设备,旨在为全球尤其是偏远地区提供高速低延迟的宽带互联网服务,助力缩小数字鸿沟,同时可支撑军事、航空等领域的通信需求。

Basic Information
目录编号:
60603
目录名称:
STARLINK-31874
国际标识:
2024-150W
轨道中心:
EARTH
卫星名称:
星链-31874 (STARLINK-31874)
卫星全名:
星链-31874 (STARLINK-31874)
卫星状态:
在轨 (已飞行745 天)
发射日期:
2024-08-20 UTC
国别 :
美国 (US)
星等 :
--
Orbit Information
数据来源 国际轨道数据
星历时间: 2026-09-04T04:40:45+0800
9小时前
查看轨道信息
半长轴: 6840.873km
偏心率: 0.0001427
轨道倾角: 53.160°
近地点辐角 88.786°
升交点赤经 195.656°
平近点角 271.330°
近地点: 461.759km
远地点: 463.713km
周期: 93.848分钟
每日圈数: 15.343891
Detailed Information
卫星平台:
Starlink v2.0 mini
运营商:
太空探索技术公司
运营商所在国:
美国
制造商(研发单位):
太空探索技术公司
制造商所在国:
美国
使用方式:
暂无
Satellite Introduction
星链(Starlink)计划是由太空探索技术公司(SpaceX)提出的一个巨型低轨卫星互联网星座项目,计划在2019年至2024年间在太空搭建由约1.2万颗卫星组成的“星链”网络,其中1584颗将部署在地球上空550千米处的近地轨道,并从2020年开始工作。该卫星仍在工作。
2D Orbit Map
3D Orbit Map
Orbit Altitude Analysis Chart
Orbit Inclination Analysis Chart
Orbit Comprehensive Analysis Chart
View Comprehensive Chart
Conjunction Data List
Event ID Objects TCA Miss Dist (km) Collision Risk Probability Collision Risk Index (CRI) Action
CDM_260904-075406-060306-543122
2026-09-04T
07:54:34+0000
0.668 km
远距离
6.084314E-5 中风险 0.71
CDM_260904-180406-060306-543122
2026-09-04T
18:04:12+0000
1.332 km
极远距离
6.095589E-6 低风险 0.51
CDM_260904-193806-060306-543122
2026-09-04T
19:38:00+0000
1.895 km
极远距离
2.092824E-6 低风险 0.41
CDM_260903-111605-228206-060322
2026-09-03T
11:16:38+0000
2.695 km
极远距离
1.38465E-6 低风险 0.38
CDM_260904-092806-060306-543121
2026-09-04T
09:28:21+0000
2.301 km
极远距离
1.342699E-6 低风险 0.38